This is the latest recevied weather packets stored in our database for station/object KO4FR. If no packets are shown the sender has not sent any weather packets the latest 10 day(s).
| Time | Temp. | Humidity | Pressure | Rain* | Wind** | Luminosity | Snow |
|---|---|---|---|---|---|---|---|
| 1777835399 | 17.22° C | 30% | 1017.7 hPa | 0 mm | - | - | - |
| 1777835098 | 17.22° C | 31% | 1017.8 hPa | 0 mm | - | - | - |
| 1777834798 | 16.67° C | 32% | 1017.9 hPa | 0 mm | - | - | - |
| 1777834498 | 16.67° C | 32% | 1017.8 hPa | 0 mm | - | - | - |
| 1777834198 | 16.11° C | 31% | 1018 hPa | 0 mm | - | - | - |
| 1777833898 | 16.11° C | 32% | 1018 hPa | 0 mm | - | - | - |
| 1777833598 | 16.11° C | 33% | 1018 hPa | 0 mm | - | - | - |
| 1777833298 | 16.11° C | 32% | 1018.2 hPa | 0 mm | - | - | - |
| 1777832998 | 16.11° C | 33% | 1018.1 hPa | 0 mm | - | - | - |
| 1777832698 | 16.67° C | 31% | 1018.2 hPa | 0 mm | - | - | - |
| 1777832398 | 16.67° C | 33% | 1018.2 hPa | 0 mm | - | - | - |
| 1777832098 | 16.11° C | 35% | 1018.3 hPa | 0 mm | - | - | - |
| 1777831798 | 16.11° C | 34% | 1018.3 hPa | 0 mm | - | - | - |
| 1777831498 | 16.11° C | 34% | 1018.3 hPa | 0 mm | - | - | - |
| 1777831198 | 16.11° C | 33% | 1018.4 hPa | 0 mm | - | - | - |
| 1777830898 | 15.56° C | 33% | 1018.4 hPa | 0 mm | - | - | - |
| 1777830598 | 15.56° C | 33% | 1018.5 hPa | 0 mm | - | - | - |
| 1777830298 | 15.56° C | 32% | 1018.6 hPa | 0 mm | - | - | - |
| 1777829998 | 16.11° C | 32% | 1018.6 hPa | 0 mm | - | - | - |
| 1777829698 | 16.11° C | 33% | 1018.5 hPa | 0 mm | - | - | - |
| 1777829398 | 15.56° C | 37% | 1018.5 hPa | 0 mm | - | - | - |
| 1777829098 | 15.56° C | 36% | 1018.6 hPa | 0 mm | - | - | - |
| 1777828797 | 15.56° C | 36% | 1018.7 hPa | 0 mm | - | - | - |
| 1777828498 | 15.56° C | 35% | 1018.8 hPa | 0 mm | - | - | - |
| 1777828198 | 15.56° C | 35% | 1018.8 hPa | 0 mm | - | - | - |
* Rain latest hour (hover to see other rain measurements)
** Current wind speed in m/s (hover to see current wind gust speed)